TimeEST,TemperatureF,Dew PointF,Humidity,Sea Level PressureIn,VisibilityMPH,Wind Direction,Wind SpeedMPH,Gust SpeedMPH,PrecipitationIn,Events,Conditions,WindDirDegrees,DateUTC
12:53 AM,30.0,21.0,69,30.37,10.0,Calm,Calm,-,N/A,,Overcast,0,2012-12-06 05:53:00
1:53 AM,28.9,21.0,72,30.36,10.0,ENE,6.9,-,N/A,,Mostly Cloudy,60,2012-12-06 06:53:00
2:10 AM,28.4,19.4,69,30.31,10.0,NE,9.2,-,N/A,,Partly Cloudy,50,2012-12-06 07:10:00
2:53 AM,28.0,19.9,72,30.34,10.0,ENE,5.8,-,N/A,,Clear,60,2012-12-06 07:53:00
3:53 AM,27.0,19.9,75,30.34,10.0,Calm,Calm,-,N/A,,Clear,0,2012-12-06 08:53:00
4:53 AM,26.1,19.9,78,30.33,10.0,Calm,Calm,-,N/A,,Clear,0,2012-12-06 09:53:00
5:53 AM,24.1,19.0,81,30.35,10.0,Calm,Calm,-,N/A,,Clear,0,2012-12-06 10:53:00
6:53 AM,24.1,19.9,84,30.34,10.0,Calm,Calm,-,N/A,,Clear,0,2012-12-06 11:53:00
7:53 AM,25.0,19.9,81,30.30,10.0,East,6.9,-,N/A,,Clear,100,2012-12-06 12:53:00
8:53 AM,27.0,19.9,75,30.29,10.0,Variable,3.5,-,N/A,,Clear,0,2012-12-06 13:53:00
9:53 AM,28.9,19.9,69,30.29,10.0,Variable,4.6,-,N/A,,Clear,0,2012-12-06 14:53:00
10:53 AM,32.0,21.0,64,30.26,10.0,Variable,4.6,-,N/A,,Clear,0,2012-12-06 15:53:00
11:53 AM,34.0,21.0,59,30.22,10.0,Variable,3.5,-,N/A,,Clear,0,2012-12-06 16:53:00
12:53 PM,37.9,21.0,51,30.17,10.0,ESE,6.9,-,N/A,,Clear,110,2012-12-06 17:53:00
1:53 PM,42.1,21.9,45,30.14,10.0,Variable,4.6,-,N/A,,Clear,0,2012-12-06 18:53:00
2:53 PM,44.1,21.9,42,30.12,10.0,Calm,Calm,-,N/A,,Clear,0,2012-12-06 19:53:00
3:53 PM,42.1,19.9,41,30.11,10.0,Variable,4.6,-,N/A,,Clear,0,2012-12-06 20:53:00
4:53 PM,39.9,21.0,47,30.11,10.0,Calm,Calm,-,N/A,,Clear,0,2012-12-06 21:53:00
5:53 PM,39.0,21.0,49,30.10,10.0,Variable,5.8,-,N/A,,Clear,0,2012-12-06 22:53:00
6:53 PM,37.9,21.0,51,30.09,10.0,Calm,Calm,-,N/A,,Clear,0,2012-12-06 23:53:00
7:53 PM,37.9,21.9,53,30.10,10.0,Calm,Calm,-,N/A,,Clear,0,2012-12-07 00:53:00
8:53 PM,37.9,21.0,51,30.08,10.0,SE,4.6,-,N/A,,Clear,140,2012-12-07 01:53:00
9:53 PM,37.0,21.0,52,30.07,10.0,Variable,4.6,-,N/A,,Clear,0,2012-12-07 02:53:00
10:53 PM,37.0,21.9,54,30.05,10.0,Variable,4.6,-,N/A,,Clear,0,2012-12-07 03:53:00
11:53 PM,37.0,23.0,57,30.03,10.0,Calm,Calm,-,N/A,,Clear,0,2012-12-07 04:53:00